This is the latest recevied weather packets stored in our database for station/object N9DRW. If no packets are shown the sender has not sent any weather packets the latest 10 day(s).
| Time | Temp. | Humidity | Pressure | Rain* | Wind** | Luminosity | Snow |
|---|---|---|---|---|---|---|---|
| 1777568526 | 10.56° C | 59% | 0 hPa | 0 mm | - | - | - |
| 1777567926 | 10° C | 60% | 0 hPa | 0 mm | - | - | - |
| 1777567326 | 10° C | 60% | 0 hPa | 0 mm | - | - | - |
| 1777566726 | 9.44° C | 63% | 0 hPa | 0 mm | - | - | - |
| 1777566126 | 10° C | 61% | 0 hPa | 0 mm | - | - | - |
| 1777565526 | 10° C | 64% | 0 hPa | 0 mm | - | - | - |
| 1777564926 | 10° C | 61% | 0 hPa | 0 mm | - | - | - |
| 1777564326 | 9.44° C | 63% | 0 hPa | 0 mm | - | - | - |
| 1777563726 | 10° C | 60% | 0 hPa | 0 mm | - | - | - |
| 1777563126 | 10° C | 60% | 0 hPa | 0 mm | - | - | - |
| 1777562526 | 8.89° C | 64% | 0 hPa | 0 mm | - | - | - |
| 1777561926 | 8.33° C | 68% | 0 hPa | 0 mm | - | - | - |
| 1777561326 | 8.33° C | 70% | 0 hPa | 0 mm | - | - | - |
| 1777560726 | 7.78° C | 69% | 0 hPa | 0 mm | - | - | - |
| 1777560126 | 7.78° C | 71% | 0 hPa | 0 mm | - | - | - |
| 1777559526 | 7.78° C | 70% | 0 hPa | 0 mm | - | - | - |
| 1777558926 | 7.22° C | 70% | 0 hPa | 0 mm | - | - | - |
| 1777558326 | 6.67° C | 67% | 0 hPa | 0 mm | - | - | - |
| 1777557726 | 6.67° C | 75% | 0 hPa | 0 mm | - | - | - |
| 1777557126 | 6.67° C | 76% | 0 hPa | 0 mm | - | - | - |
| 1777556526 | 6.67° C | 79% | 0 hPa | 0 mm | - | - | - |
| 1777555926 | 6.67° C | 80% | 0 hPa | 0 mm | - | - | - |
| 1777555326 | 6.67° C | 80% | 0 hPa | 0 mm | - | - | - |
| 1777554726 | 6.67° C | 81% | 0 hPa | 0 mm | - | - | - |
| 1777554126 | 6.11° C | 82% | 0 hPa | 0 mm | - | - | - |
* Rain latest hour (hover to see other rain measurements)
** Current wind speed in m/s (hover to see current wind gust speed)